Terminal Aerodrome Forecast
Issued by NWS Salt Lake City, UT

Home | Current Version | Previous Version | Text Only | Print | Product List | Glossary On
Versions: 1 2 3 4 5 6 7 8 9 10 11 12 13 14 15 16 17 18 19 20 21 22 23 24 25 26 27 28 29 30
000
FTUS45 KSLC 291722
TAFCDC
TAF
KCDC 291722Z 2918/3018 00000KT P6SM SKC
     FM291900 22009KT P6SM SKC
     FM300200 16003KT P6SM SKC
     FM301600 21010KT P6SM FEW090 SCT150=

USA.gov is the U.S. government's official web portal to all federal, state and local government web resources and services.